www.pogodaiklimat.ru

Погода и климат >> Архив погоды >> Украина >> Бердянск


ПОГОДА в Бердянске

  • Прогноз погоды в Бердянске
  • Монитор погоды в Бердянске

АРХИВ ПОГОДЫ в Бердянске

Время (UTC), дата Ветер
(напр.,м/с)
 
Видим.   Явления Облачность Т
(С)
Тd
(С)
f
(%)
Тe
(С)
Тes
(С)
Комфортность P
(гПа)
Po
(гПа)
Тmin
(С)
Tmax
(С)
R
(мм)
R24
(мм)
S
(см)
18 18.06 штиль 0 10 км ясно +26.7 +12.6 42 +28 +28 жарко 1012.5 1012.3 +29.4
21 18.06 С 3 10 км ясно +23.6 +11.5 47 +25 +25 комфорт 1013.0 1012.8
00 19.06 С 4 10 км ясно +22.0 +10.5 48 +24 +24 комфорт 1012.6 1012.4
03 19.06 СВ 3 17 км ясно +22.4 +11.3 49 +25 +25 комфорт 1012.5 1012.3
06 19.06 В 2 18 км ясно +28.8 +17.3 50 +33 +43 очень
душно
1013.1 1012.9 +21.8
12 19.06 Ю 3 17 км 3/3 600 м
[Cu med, cong]
+28.5 +17.7 52 +33 +41 очень
душно
1011.4 1011.2
18 19.06 СВ 2 20 км 4/0
[Ci ing]
+28.0 +15.9 48 +31 +31 душно 1011.1 1010.9 +31.0
21 19.06 В 2 10 км ясно +25.8 +17.2 59 +30 +30 душно 1011.6 1011.4
00 20.06 СВ 2 10 км ясно +23.6 +16.2 63 +27 +27 жарко 1011.6 1011.4
03 20.06 СВ 4 15 км 4/0
[Ci fib]
+22.6 +15.4 64 +27 +27 душно 1011.6 1011.4
06 20.06 В 5 18 км ясно +27.6 +18.1 56 +32 +37 очень
душно
1012.0 1011.8 +22.5
09 20.06 В 7 21 км ясно +29.5 +18.3 51 +34 +39 очень
душно
1012.0 1011.8
12 20.06 В 5 24 км 3/3 600 м
[Cu med, cong]
+30.8 +18.7 49 +36 +41 очень
душно
1011.6 1011.4
15 20.06 В 4 26 км 3/3 600 м
[Cu med, cong]
+31.0 +18.1 46 +35 +37 очень
душно
1010.6 1010.4
18 20.06 СВ 4 27 км ясно +28.2 +16.7 50 +32 +32 душно 1011.0 1010.8 +31.4
21 20.06 СВ 5 10 км ясно +26.5 +13.7 45 +29 +29 жарко 1011.2 1011.0
00 21.06 СВ 4 10 км ясно +24.2 +12.6 48 +26 +26 жарко 1011.6 1011.4
03 21.06 СВ 4 16 км 4/4 1000 м
[Cu hum]
+23.6 +12.6 50 +26 +26 жарко 1012.3 1012.1
06 21.06 СВ 5 20 км 3/0
[Ac trans]
+29.0 +16.4 47 +32 +37 душно 1013.1 1012.9 +23.2
09 21.06 В 7 21 км 1/0
[Ac trans]
+30.3 +18.4 49 +35 +40 очень
душно
1013.1 1012.9
12 21.06 В 7 20 км 3/3 600 м
[Cu med, cong]
+32.0 +18.7 45 +37 +40 очень
душно
1013.1 1012.9
15 21.06 В 5 22 км 3/3 600 м
[Cu med, cong]
+32.1 +18.1 43 +36 +38 очень
душно
1012.5 1012.3
18 21.06 В 5 20 км 3/3 600 м
[Cu med, cong]
+29.0 +17.7 51 +33 +33 очень
душно
1012.8 1012.6 +33.4
21 21.06 СВ 3 10 км ясно +26.4 +17.7 59 +31 +31 душно 1013.2 1013.0
00 22.06 СВ 4 10 км 6/0
[Ac trans]
+25.2 +14.3 51 +28 +28 жарко 1013.7 1013.5
03 22.06 В 4 15 км 6/3 600 м
[Cb cap Ci]
+23.6 +12.4 49 +25 +26 комфорт 1013.7 1013.5
06 22.06 В 6 12 км 9/3 600 м
[Cb calv Ac trans Ci]
+28.0 +16.9 51 +32 +33 душно 1014.4 1014.2 +23.4
09 22.06 В 5 11 км 9/3 600 м
[Cb cap Ac cast Ci]
+29.2 +18.5 53 +34 +38 очень
душно
1014.5 1014.3
12 22.06 СВ 3 10 км в посл. час гроза 10/6 660 м
[Cb cap Ac As]
+28.9 +18.0 52 +34 +35 очень
душно
1014.6 1014.4
15 22.06 СВ 2 10 км в посл. час ливневой дождь 10/4 600 м
[Cb cap Ac As]
+28.8 +16.3 47 +32 +33 душно 1013.9 1013.7
18 22.06 СВ 5 10 км {ливн. осадки} 10/5 600 м
[Cb cap Ac As]
+29.4 +14.0 39 +31 +31 жарко 1013.0 1012.8 +29.9 0.0
21 22.06 С 5 10 км 9/0
[Ac trans]
+28.4 +11.4 35 +29 +29 жарко 1012.4 1012.2
00 23.06 СВ 4 10 км 9/0
[Ac trans]
+28.0 +10.5 34 +29 +29 жарко 1012.0 1011.8
06 23.06 В 5 14 км 8/3 600 м
[Cb cap Ac As]
+27.2 +17.4 55 +31 +33 душно 1014.0 1013.8 +26.5
12 23.06 СВ 3 16 км 9/0
[Ac As]
+29.0 +17.7 51 +33 +38 очень
душно
1013.6 1013.4
18 23.06 штиль 0 18 км {ливн. осадки} 10/4 600 м
[Cb cap Ac und]
+26.0 +17.2 58 +30 +30 душно 1013.3 1013.1 +30.2 0.0
00 24.06 С 4 10 км в посл. час ливневой дождь 10/3 600 м
[Cb cap Ac und]
+22.8 +15.5 63 +27 +27 душно 1012.8 1012.6
06 24.06 В 4 25 км 8/0
[Ac und]
+26.8 +17.3 56 +31 +34 душно 1013.3 1013.1 +22.6 1
12 24.06 Ю 2 22 км 5/3
[Cu med, cong Ac und]
+29.5 +20.8 60 +37 +45 очень
душно
1013.6 1013.4
18 24.06 С 1 22 км 3/0
[Ac und]
+26.2 +17.1 57 +30 +30 душно 1014.2 1014.0 +30.0
06 25.06 В 3 17 км 4/0
[Ac trans]
+28.2 +15.7 47 +31 +37 душно 1015.9 1015.7 +23.0

 

Местоположение метеостанции Бердянск (Запорожская область, Украина): широта 46.75 долгота 36.78 высота над уровнем моря 2 м.

В архиве по умолчанию представлена погода в Бердянске за последнюю неделю. Архивные данные за месяц целиком и за предыдущие месяцы, начиная с января 2011 года, Вы можете получить, выбрав интересующий диапазон дат из раскрывающегося списка и нажав кнопку "Ввод!".


*Определитесь, кто Вы:
робот инопланетянин человек

Внимание! Время в таблицах - всемирное. Для получения местного времени необходимо прибавить поправку, которая равна 2 ч.

Смотрите также архив погоды в соседних городах и на ближайших метеорологических станциях:

Погода в Мариуполе (Донецкая область, Украина) (63 км)
Погода в Ботиево (Запорожская область, Украина) (71 км)
Погода в Должанке (Краснодарский край, Россия) (73 км)
Погода в Кирилловке (Запорожская область, Украина) (73 км)
Погода в Волновахе (Донецкая область, Украина) (106 км)
Погода в Мелитополе (Запорожская область, Украина) (108 км)
Погода в Гуляйполе (Запорожская область, Украина) (110 км)
Погода в Ейске (Краснодарский край, Россия) (114 км)
Погода в Пришибе (Запорожская область, Украина) (124 км)
Погода в Приморско-Ахтарске (Краснодарский край, Россия) (132 км)

Пояснения к столбцам:

Ветер - указаны скорость ветра в м/с - средняя за 10 мин, порывы в срок и между сроками (в фигурных скобках) и направление, откуда дует ветер: С - северный, СВ - северо-восточный, В - восточный, ЮВ - юго-восточный, Ю - южный, ЮЗ - юго-западный, З - западный, СЗ - северо-западный.
Видимость - горизонтальная дальность видимости в метрах или километрах. При видимости от 1 до 10 км при отсутствии осадков обычно наблюдается дымка, при ухудшении видимости до 1 км и менее - туман. В сухую погоду видимость может ухудшаться дымом, пылью или мглою.
Явления - указаны атмосферные явления, наблюдавшиеся в срок или в последний час перед сроком; фигурными скобками обозначены явления, наблюдавшиеся между сроками (за 1-3 часа до срока); квадратными скобками обозначены град или гололедные отложения с указанием их диаметра в мм.
Облачность - указаны через наклонную черту общая и нижняя облачность в баллах и высота нижней границы облаков в метрах; квадратными скобками обозначены формы облаков: Ci - перистые, Cs - перисто-слоистые, Cc - перисто-кучевые, Ac - высококучевые, As - высокослоистые, Sc - слоисто-кучевые, Ns - слоисто-дождевые, Cu - кучевые, Cb - кучево-дождевые. Подробнее классификацию облаков см. в Атласе облаков (PDF).
T - Температура воздуха - температура, измеренная на высоте 2 м над землей.
Td - Температура точки росы - температура, при понижении до которой содержащийся в воздухе водяной пар достигнет насыщения.
f - Относительная влажность воздуха - влажноcть воздуха, измеренная на высоте 2 м над землей.
Te - Эффективная температура - температура, которую ощущает одетый по сезону человек в тени. Характеристика душности погоды. При расчете учитывается влияние влажности воздуха и скорости ветра на теплоощущения человека.
Tes - Эффективная температура на солнце - температура, которую ощущает человек, с поправкой на солнечный нагрев. Характеристика знойности погоды. Зависит от высоты солнца над горизонтом, облачности и скорости ветра. Ночью, в пасмурную погоду, а также при ветре 12 м/с и более поправка равна нулю.
P - Атмосферное давление - приведенное к уровню моря атмосферное давление.
Po - Атмосферное давление - измеренное на уровне метеостанции атмосферное давление.
Tmin - Минимальная температура - минимум температуры воздуха на высоте 2 м над землей.
Tmax - Максимальная температура - максимум температуры воздуха на высоте 2 м над землей.
R - Количество осадков - Количество выпавших осадков за период времени, мм. При наведении курсора мыши на число - период времени, за который выпало указанное количество осадков.
R24 - Количество осадков - Количество выпавших осадков за 24 часа, мм.
S - Снежный покров - Высота снежного покрова, см. При наведении курсора мыши на число - состояние снежного покрова и степень покрытия местности в баллах.